#timestamp,LO_Frequency,Hit,StdDev 
1551884415.7,286047002.1,N
1551884435.6,286047002.7,N
1551884455.4,286047001.1,N
1551884475.2,286046997.3,N
1551884495.1,286046995.3,N
1551884496.0,286046995.3,N
1551884515.8,286046994.9,N
1551884535.6,286046995.1,N
1551884555.5,286046994.9,N
1551884575.3,286046997.5,N
1551884595.2,286046995.1,N
1551884615.9,286046995.4,N
1551884635.7,286046997.0,N
1551884655.6,286046997.2,N
1551884675.4,286046993.7,N
1551884695.2,286046994.7,N
1551884715.1,286046992.6,N
1551884716.0,286046992.6,N
1551884735.8,286046990.4,N
1551884755.7,286046993.2,N
1551884775.5,286046994.7,N
1551884795.3,286046994.3,N
1551884815.2,286046996.2,N
1551884835.0,286046997.8,N
1551884835.9,286046997.8,N
1551884855.8,286046994.9,N
1551884875.6,286046996.8,N
1551884895.4,286046997.2,N
1551884915.3,286046995.3,N
1551884935.1,286046993.6,N
1551884955.8,286046993.5,N
1551884975.7,286046995.0,N
1551884995.5,286046997.8,N
1551885015.4,286046994.8,N
1551885035.2,286046992.6,Y
1551885055.0,286046995.2,P
1551885055.9,286046995.2,P
1551885075.8,286046993.4,P
1551885095.6,286046994.0,Y
1551885115.5,286046997.6,P
1551885135.3,286046994.9,P
1551885155.1,286046996.2,N
1551885175.9,286046993.3,Y
1551885195.7,286046998.9,P
1551885215.5,286046996.5,N
1551885235.4,286046999.2,N
1551885255.2,286046998.8,N
1551885275.1,286046999.9,N
1551885276.0,286046999.9,N
1551885295.8,286047000.3,N
1551885315.6,286047002.2,N
1551885335.5,286047001.8,N
1551885355.3,286047005.2,N
1551885375.1,286047005.5,N
1551885395.9,286047005.7,N
1551885415.7,286047007.4,N
1551885435.6,286047004.7,N
1551885455.4,286047007.2,N
1551885475.2,286047006.8,N
1551885495.1,286047005.2,N
1551885496.0,286047005.2,N
1551885515.8,286047004.5,N
1551885535.7,286047007.0,N
1551885555.5,286047007.0,N
1551885575.3,286047006.9,N
1551885595.2,286047006.3,N
1551885615.0,286047004.6,N
1551885615.9,286047004.6,N
1551885635.7,286047007.2,N
1551885655.6,286047011.9,Y
1551885675.4,286047005.9,P
1551885695.3,286047004.0,P
1551885715.1,286047002.6,N
1551885716.0,286047002.6,N
1551885735.8,286047001.5,N
1551885755.7,286047004.3,Y
1551885775.5,286047000.4,P
1551885795.4,286047002.5,N
1551885815.2,286047003.3,N
1551885835.0,286047003.5,N
1551885835.9,286047003.5,N
1551885855.8,286047003.3,N
1551885875.6,286047003.7,Y
1551885895.4,286046999.9,P
1551885915.3,286047000.0,N
1551885935.1,286047004.2,P
1551885955.9,286047006.0,Y
1551885975.7,286047004.2,P
1551885995.5,286047005.3,P
1551886015.4,286047005.6,P
1551886035.2,286047007.5,Y
1551886055.1,286047001.7,P
1551886056.0,286047001.7,N
1551886075.8,286047002.1,N
1551886095.6,286047004.0,Y
1551886115.5,286047000.2,P
1551886135.3,286046999.9,N
1551886155.2,286046996.9,N
1551886175.9,286046996.5,N
1551886195.7,286046996.7,N
1551886215.6,286047000.8,N
1551886235.4,286047002.4,N
1551886255.2,286047002.8,N
1551886275.1,286046999.8,N
1551886276.0,286046999.8,N
1551886295.8,286047000.0,N
1551886315.7,286047001.0,N
1551886335.5,286046998.9,N
1551886355.3,286046999.6,N
1551886375.2,286046999.2,N
1551886395.0,286046998.1,N
1551886395.9,286046998.1,N
1551886415.7,286047000.8,N
1551886435.6,286047002.7,N
1551886455.4,286046998.4,N
1551886475.3,286046998.4,N
1551886495.1,286046998.2,N
1551886515.8,286046998.2,N
1551886535.7,286047000.8,N
1551886555.5,286046999.9,N
1551886575.4,286047001.4,N
1551886595.2,286047004.1,N
1551886615.0,286047007.5,Y
1551886615.9,286047007.5,P
1551886635.8,286047007.3,N
1551886655.6,286047007.2,N
1551886675.4,286047003.4,N
1551886695.3,286047004.2,N
1551886715.1,286047001.3,N
1551886735.9,286047002.0,N
1551886755.7,286047003.4,N
1551886775.5,286047003.3,N
1551886795.4,286047004.9,N
1551886815.2,286047006.7,N
1551886835.0,286047007.3,Y
1551886836.0,286047007.3,P
1551886855.8,286047002.7,N
1551886875.6,286047001.7,N
1551886895.5,286047000.0,N
1551886915.3,286047001.0,N
1551886935.1,286047000.5,N
1551886955.9,286046999.9,N
1551886975.7,286047001.6,N
1551886995.6,286047003.8,N
1551887015.4,286047003.0,N
1551887035.2,286047001.4,N
1551887055.1,286047002.4,N
1551887056.0,286047002.4,N
1551887075.8,286046998.2,N
1551887095.6,286046998.3,N
1551887115.5,286046999.6,N
1551887135.3,286046997.2,N
1551887155.2,286046997.9,N
1551887175.9,286046997.1,N
1551887195.7,286046996.8,N
1551887215.6,286046996.7,N
1551887235.4,286046995.7,N
1551887255.2,286046994.9,N
1551887275.1,286046993.6,N
1551887276.0,286046993.6,N
1551887295.8,286046993.3,N
1551887315.7,286046993.7,N
1551887335.5,286046995.8,N
1551887355.3,286046993.4,N
1551887375.2,286046994.2,N
1551887395.0,286046986.3,Y
1551887395.9,286046994.1,P
1551887415.8,286046996.3,N
1551887435.6,286046994.0,P
1551887455.4,286046996.4,N
1551887475.3,286046993.4,Y
1551887495.1,286046998.3,P
1551887515.9,286046999.0,N
1551887535.7,286046999.3,N
1551887555.5,286046998.8,N
1551887575.4,286046996.5,N
1551887595.2,286046999.6,N
1551887615.0,286046999.2,N
1551887615.9,286046999.2,N
1551887635.8,286046999.1,N
1551887655.6,286046998.9,N
1551887675.5,286046999.2,N
1551887695.3,286046999.6,N
1551887715.1,286046996.9,N
1551887735.9,286046997.7,N
1551887755.7,286046996.7,N
1551887775.5,286046998.2,N
1551887795.4,286047001.3,N
1551887815.2,286047003.0,N
1551887835.0,286047003.4,N
1551887836.0,286047003.4,N
1551887855.8,286047003.0,N
1551887875.6,286047005.9,N
1551887895.5,286047003.8,N
1551887915.3,286047004.1,N
1551887935.1,286047001.4,N
1551887955.9,286047002.3,N
1551887975.7,286047003.1,N
1551887995.6,286047004.5,N
